K8MUD Weather Reports


Display with metric or nautical units.
time (UTC)temp
F
wind
direction
speed
MPH
gust
MPH
rain 1hr
in
rain 24hr
in
rain mn
in
humidity
%
barometer
mb
20260507090502 42 0 0.0 0.0 0.00 0.00 0.00 75 1012.0
20260507090304 42 0 0.0 0.0 0.00 0.00 0.00 75 1011.8
20260507090002 42 0 0.0 0.0 0.00 0.00 0.00 75 1011.9
20260507085804 42 198 0.0 2.0 0.00 0.00 0.00 75 1012.0
20260507085503 42 198 0.0 2.0 0.00 0.00 0.00 75 1012.1
20260507085306 42 198 0.0 2.0 0.00 0.00 0.00 75 1012.1
20260507085002 42 198 0.0 2.0 0.00 0.00 0.00 74 1012.0
20260507084804 42 198 0.0 1.0 0.00 0.00 0.00 74 1012.0
20260507084503 42 198 0.0 2.0 0.00 0.00 0.00 74 1012.1
20260507084303 42 198 1.0 2.0 0.00 0.00 0.00 74 1012.0
20260507084004 42 197 1.0 3.0 0.00 0.00 0.00 74 1012.1
20260507083803 42 197 2.0 3.0 0.00 0.00 0.00 73 1012.1
20260507083503 42 196 2.0 3.0 0.00 0.00 0.00 74 1012.1
20260507083303 42 196 2.0 3.0 0.00 0.00 0.00 74 1012.0
20260507083002 43 195 2.0 3.0 0.00 0.00 0.00 74 1011.9
20260507082803 43 195 2.0 3.0 0.00 0.00 0.00 74 1011.9
20260507082523 43 195 2.0 3.0 0.00 0.00 0.00 74 1012.0
20260507082306 43 195 2.0 3.0 0.00 0.00 0.00 74 1012.0
20260507082002 43 195 2.0 3.0 0.00 0.00 0.00 73 1011.9
20260507081803 43 195 2.0 3.0 0.00 0.00 0.00 73 1012.0
20260507081503 43 195 2.0 3.0 0.00 0.00 0.00 73 1012.0
20260507081303 43 195 1.0 3.0 0.00 0.00 0.00 73 1012.0
20260507081002 43 195 1.0 2.0 0.00 0.00 0.00 73 1011.9
20260507080803 43 193 1.0 3.0 0.00 0.00 0.00 73 1011.9
20260507080502 43 188 2.0 3.0 0.00 0.00 0.00 73 1011.9
20260507080303 43 185 2.0 3.0 0.00 0.00 0.00 73 1011.8
20260507080023 43 182 2.0 3.0 0.00 0.00 0.00 73 1011.9
20260507075803 43 180 2.0 3.0 0.00 0.00 0.00 73 1012.0
20260507075524 43 180 2.0 3.0 0.00 0.00 0.00 74 1012.0
20260507075306 43 179 2.0 3.0 0.00 0.00 0.00 73 1011.9
20260507075003 43 179 2.0 3.0 0.00 0.00 0.00 75 1011.9
20260507074803 43 179 1.0 3.0 0.00 0.00 0.00 75 1011.9
20260507074524 43 179 1.0 3.0 0.00 0.00 0.00 75 1011.9
20260507074303 43 179 1.0 3.0 0.00 0.00 0.00 76 1011.9
20260507074023 44 179 1.0 2.0 0.00 0.00 0.00 75 1011.8
20260507073803 44 179 1.0 2.0 0.00 0.00 0.00 76 1011.8
20260507073503 44 179 1.0 2.0 0.00 0.00 0.00 76 1011.8
20260507073302 44 179 1.0 2.0 0.00 0.00 0.00 76 1011.9
20260507073003 44 179 1.0 2.0 0.00 0.00 0.00 76 1011.9
20260507072802 44 179 1.0 2.0 0.00 0.00 0.00 77 1011.9
20260507072502 44 179 1.0 3.0 0.00 0.00 0.00 77 1011.9
20260507072306 44 179 1.0 3.0 0.00 0.00 0.00 77 1011.8
20260507072003 44 179 1.0 3.0 0.00 0.00 0.00 78 1011.8
20260507071802 44 179 2.0 3.0 0.00 0.00 0.00 79 1011.7
20260507071503 44 179 2.0 3.0 0.00 0.00 0.00 79 1011.9
20260507071302 44 179 2.0 3.0 0.00 0.00 0.00 80 1011.9
20260507071002 44 179 1.0 3.0 0.00 0.00 0.00 81 1011.9
20260507070802 44 179 1.0 3.0 0.00 0.00 0.00 81 1011.9
20260507070503 45 179 0.0 3.0 0.00 0.00 0.00 81 1011.9
20260507070302 45 178 0.0 2.0 0.00 0.00 0.00 81 1011.9
20260507070004 45 0 0.0 0.0 0.00 0.00 0.00 81 1011.8
20260507065802 45 0 0.0 0.0 0.00 0.00 0.00 81 1011.9
20260507065503 45 0 0.0 0.0 0.00 0.00 0.00 81 1011.9
20260507065305 45 0 0.0 0.0 0.00 0.00 0.00 81 1011.8
20260507065002 45 0 0.0 0.0 0.00 0.00 0.00 81 1011.9
20260507064802 45 0 0.0 0.0 0.00 0.00 0.00 80 1011.8
20260507064503 45 0 0.0 0.0 0.00 0.00 0.00 80 1011.8
20260507064302 46 0 0.0 0.0 0.00 0.00 0.00 80 1011.9
20260507064003 46 178 0.0 1.0 0.00 0.00 0.00 80 1011.8
20260507063802 46 178 0.0 1.0 0.00 0.00 0.00 80 1011.8
20260507063502 46 178 0.0 1.0 0.00 0.00 0.00 80 1011.9
20260507063302 46 178 0.0 1.0 0.00 0.00 0.00 80 1011.9
20260507063003 46 178 0.0 1.0 0.00 0.00 0.00 80 1011.9
20260507062801 46 178 0.0 1.0 0.00 0.00 0.00 80 1011.9
20260507062503 46 178 0.0 1.0 0.00 0.00 0.00 80 1011.9
20260507062305 46 178 0.0 1.0 0.00 0.00 0.00 80 1011.8
20260507062003 46 0 0.0 0.0 0.00 0.00 0.00 80 1011.9
20260507061801 46 178 0.0 1.0 0.00 0.00 0.00 80 1011.8
20260507061503 46 178 0.0 1.0 0.00 0.00 0.00 80 1011.8
20260507061301 46 178 0.0 1.0 0.00 0.00 0.00 80 1011.9
20260507061024 46 178 0.0 1.0 0.00 0.00 0.00 80 1011.8
20260507060801 47 178 0.0 1.0 0.00 0.00 0.00 80 1012.0
20260507060503 47 178 0.0 1.0 0.00 0.00 0.00 80 1012.0
20260507060301 47 0 0.0 0.0 0.00 0.00 0.00 79 1011.9
20260507060003 47 0 0.0 0.0 0.00 0.00 0.00 79 1011.9
20260507055801 47 0 0.0 0.0 0.00 0.00 0.00 79 1011.9
20260507055503 47 0 0.0 0.0 0.00 0.00 0.00 80 1012.0
20260507055301 47 0 0.0 0.0 0.00 0.00 0.00 79 1012.0
20260507055004 47 0 0.0 0.0 0.00 0.00 0.00 79 1012.0
20260507054801 47 0 0.0 0.0 0.00 0.00 0.00 79 1012.0
20260507054503 47 178 0.0 1.0 0.00 0.00 0.00 79 1012.0
20260507054301 47 178 0.0 1.0 0.00 0.00 0.00 79 1011.9
20260507054024 47 178 0.0 1.0 0.00 0.00 0.00 79 1012.0
20260507053801 47 178 0.0 1.0 0.00 0.00 0.00 79 1012.0
20260507053503 47 178 0.0 2.0 0.00 0.00 0.00 79 1012.0
20260507053301 47 178 0.0 2.0 0.00 0.00 0.00 79 1012.1
20260507053003 47 178 0.0 2.0 0.00 0.00 0.00 79 1012.0
20260507052801 47 178 0.0 2.0 0.00 0.00 0.00 79 1012.1
20260507052502 47 178 0.0 1.0 0.00 0.00 0.00 79 1012.0
20260507052300 47 178 1.0 3.0 0.00 0.00 0.00 79 1012.1
20260507052003 48 178 1.0 3.0 0.00 0.00 0.00 79 1012.2
20260507051800 48 178 1.0 3.0 0.00 0.00 0.00 79 1012.2
20260507051503 48 178 1.0 3.0 0.00 0.00 0.00 79 1012.2
20260507051300 48 178 1.0 2.0 0.00 0.00 0.00 79 1012.2
20260507051003 48 178 1.0 3.0 0.00 0.00 0.00 79 1012.2
20260507050800 48 178 1.0 3.0 0.00 0.00 0.00 79 1012.1
20260507050503 48 178 1.0 3.0 0.00 0.00 0.00 79 1012.3
20260507050300 48 178 1.0 3.0 0.00 0.00 0.00 79 1012.2
20260507050003 48 178 1.0 3.0 0.00 0.00 0.00 79 1012.3
20260507045800 48 178 1.0 3.0 0.00 0.00 0.00 79 1012.3
20260507045524 48 178 1.0 4.0 0.00 0.00 0.00 79 1012.3
20260507045300 48 178 1.0 4.0 0.00 0.00 0.00 79 1012.3
20260507045003 48 178 1.0 4.0 0.00 0.00 0.00 79 1012.4
20260507044800 48 178 1.0 4.0 0.00 0.00 0.00 79 1012.4
20260507044503 48 178 1.0 2.0 0.00 0.00 0.00 79 1012.3
20260507044300 48 178 1.0 4.0 0.00 0.00 0.00 79 1012.4
20260507044003 48 178 1.0 4.0 0.00 0.00 0.00 78 1012.4
20260507043800 48 178 1.0 4.0 0.00 0.00 0.00 78 1012.4
20260507043524 48 178 1.0 4.0 0.00 0.00 0.00 78 1012.4
20260507043300 48 178 1.0 3.0 0.00 0.00 0.00 78 1012.3
20260507043003 48 178 1.0 2.0 0.00 0.00 0.00 78 1012.3
20260507042800 48 178 1.0 3.0 0.00 0.00 0.00 78 1012.4
20260507042503 48 178 1.0 3.0 0.00 0.00 0.00 78 1012.4
20260507042300 48 178 1.0 4.0 0.00 0.00 0.00 78 1012.5
20260507042003 48 178 2.0 4.0 0.00 0.00 0.00 78 1012.5
20260507041800 48 178 2.0 4.0 0.00 0.00 0.00 78 1012.5
20260507041503 48 179 2.0 4.0 0.00 0.00 0.00 78 1012.4
20260507041300 48 179 2.0 4.0 0.00 0.00 0.00 78 1012.4
20260507041024 48 180 2.0 4.0 0.00 0.00 0.00 78 1012.4
20260507040759 48 181 2.0 4.0 0.00 0.00 0.00 77 1012.4
20260507040503 48 181 1.0 4.0 0.00 0.00 0.00 77 1012.4
20260507040259 48 181 2.0 4.0 0.00 0.00 0.00 77 1012.5
20260507040024 48 181 2.0 4.0 0.00 0.00 0.00 77 1012.4
20260507035759 48 180 2.0 5.0 0.00 0.00 0.00 77 1012.4
20260507035504 48 179 2.0 5.0 0.00 0.00 0.00 76 1012.4
20260507035259 48 177 3.0 5.0 0.00 0.00 0.00 76 1012.4
20260507035003 48 176 3.0 5.0 0.00 0.00 0.00 76 1012.5
20260507034759 48 177 2.0 5.0 0.00 0.00 0.00 76 1012.5
20260507034503 48 178 3.0 5.0 0.00 0.00 0.00 76 1012.5
20260507034259 48 175 3.0 5.0 0.00 0.00 0.00 76 1012.6
20260507034003 48 178 3.0 5.0 0.00 0.00 0.00 75 1012.6
20260507033759 49 181 3.0 5.0 0.00 0.00 0.00 75 1012.5
20260507033503 49 184 3.0 5.0 0.00 0.00 0.00 75 1012.7
20260507033259 49 188 3.0 6.0 0.00 0.00 0.00 75 1012.6
20260507033003 49 187 3.0 6.0 0.00 0.00 0.00 75 1012.7
20260507032759 49 185 3.0 6.0 0.00 0.00 0.00 75 1012.8
20260507032503 49 183 3.0 6.0 0.00 0.00 0.00 75 1012.7
20260507032259 49 185 2.0 6.0 0.00 0.00 0.00 75 1012.8
20260507032004 49 185 3.0 6.0 0.00 0.00 0.00 75 1012.6
20260507031759 49 180 3.0 6.0 0.00 0.00 0.00 75 1012.8
20260507031503 49 177 3.0 7.0 0.00 0.00 0.00 75 1012.7
20260507031259 49 171 3.0 7.0 0.00 0.00 0.00 75 1012.8
20260507031024 49 167 3.0 7.0 0.00 0.00 0.00 75 1012.8
20260507030758 49 165 3.0 8.0 0.00 0.00 0.00 76 1012.8
20260507030503 49 166 3.0 8.0 0.00 0.00 0.00 76 1012.8
20260507030258 49 165 3.0 8.0 0.00 0.00 0.00 75 1012.8
20260507030003 49 164 3.0 8.0 0.00 0.00 0.00 75 1012.8
20260507025758 49 168 4.0 8.0 0.00 0.00 0.00 75 1012.8
20260507025503 50 168 4.0 8.0 0.00 0.00 0.00 74 1012.9
20260507025258 50 170 4.0 8.0 0.00 0.00 0.00 74 1012.8
20260507025003 50 170 4.0 7.0 0.00 0.00 0.00 74 1012.8
20260507024758 50 164 3.0 7.0 0.00 0.00 0.00 74 1012.6
20260507024503 50 160 3.0 7.0 0.00 0.00 0.00 75 1012.7
20260507024258 50 158 2.0 5.0 0.00 0.00 0.00 77 1012.5
20260507024004 50 161 2.0 5.0 0.00 0.00 0.00 77 1012.6
20260507023758 50 168 3.0 8.0 0.00 0.00 0.00 77 1012.6
20260507023503 50 171 3.0 8.0 0.00 0.00 0.00 76 1012.6
20260507023258 50 172 3.0 8.0 0.00 0.00 0.00 76 1012.6
20260507023003 50 172 3.0 8.0 0.00 0.00 0.00 76 1012.7
20260507022758 50 164 3.0 6.0 0.00 0.00 0.00 76 1012.6
20260507022503 50 159 3.0 5.0 0.00 0.00 0.00 76 1012.7
20260507022258 50 157 3.0 5.0 0.00 0.00 0.00 76 1012.6
20260507022003 50 153 3.0 7.0 0.00 0.00 0.00 75 1012.5
20260507021758 50 156 3.0 7.0 0.00 0.00 0.00 74 1012.6
20260507021503 50 155 3.0 7.0 0.00 0.00 0.00 74 1012.6
20260507021258 50 150 3.0 7.0 0.00 0.00 0.00 73 1012.5
20260507021004 50 151 3.0 6.0 0.00 0.00 0.00 74 1012.5
20260507020758 50 150 3.0 6.0 0.00 0.00 0.00 76 1012.4
20260507020524 50 153 3.0 6.0 0.00 0.00 0.00 76 1012.4
20260507020258 51 151 3.0 6.0 0.00 0.00 0.00 75 1012.4
20260507020003 51 149 3.0 6.0 0.00 0.00 0.00 75 1012.3
20260507015758 51 145 2.0 5.0 0.00 0.00 0.00 73 1012.3
20260507015503 50 143 2.0 5.0 0.00 0.00 0.00 72 1012.3
20260507015257 50 146 2.0 5.0 0.00 0.00 0.00 69 1012.5
20260507015004 50 147 2.0 5.0 0.00 0.00 0.00 69 1012.2
20260507014757 50 147 2.0 5.0 0.00 0.00 0.00 69 1012.4
20260507014503 50 148 2.0 4.0 0.00 0.00 0.00 69 1012.3
20260507014257 50 149 2.0 4.0 0.00 0.00 0.00 68 1012.3
20260507014003 50 145 2.0 4.0 0.00 0.00 0.00 68 1012.4
20260507013757 50 141 2.0 4.0 0.00 0.00 0.00 68 1012.3
20260507013504 50 135 2.0 4.0 0.00 0.00 0.00 68 1012.4
20260507013257 50 128 2.0 4.0 0.00 0.00 0.00 67 1012.4
20260507013004 50 128 2.0 4.0 0.00 0.00 0.00 68 1012.3
20260507012757 50 134 2.0 4.0 0.00 0.00 0.00 68 1012.3
20260507012503 50 138 2.0 4.0 0.00 0.00 0.00 68 1012.3
20260507012257 50 139 2.0 4.0 0.00 0.00 0.00 68 1012.2
20260507012024 50 140 2.0 4.0 0.00 0.00 0.00 69 1012.2
20260507011757 50 138 1.0 4.0 0.00 0.00 0.00 69 1012.2
20260507011524 50 136 1.0 4.0 0.00 0.00 0.00 70 1012.2
20260507011257 50 138 2.0 5.0 0.00 0.00 0.00 69 1012.2
20260507011004 50 139 2.0 5.0 0.00 0.00 0.00 69 1012.2
20260507010757 50 142 2.0 5.0 0.00 0.00 0.00 68 1012.2
20260507010503 50 143 2.0 5.0 0.00 0.00 0.00 69 1012.2
20260507010257 50 145 1.0 5.0 0.00 0.00 0.00 68 1012.2
20260507010024 50 148 1.0 5.0 0.00 0.00 0.00 68 1012.2
20260507005757 50 158 2.0 5.0 0.00 0.00 0.00 67 1012.3
20260507005504 50 161 2.0 5.0 0.00 0.00 0.00 69 1012.2
20260507005257 50 162 2.0 5.0 0.00 0.00 0.00 69 1012.3
20260507005004 50 160 2.0 5.0 0.00 0.00 0.00 69 1012.2
20260507004756 50 156 1.0 5.0 0.00 0.00 0.00 69 1012.1
20260507004503 50 152 1.0 5.0 0.00 0.00 0.00 69 1012.3
20260507004256 50 150 1.0 3.0 0.00 0.00 0.00 70 1012.2
20260507004004 50 150 1.0 4.0 0.00 0.00 0.00 69 1012.1
20260507003756 50 150 2.0 5.0 0.00 0.00 0.00 68 1012.2
20260507003500 50 151 2.0 5.0 0.00 0.00 0.00 68 1012.2
20260507003226 50 153 2.0 5.0 0.00 0.00 0.00 67 1012.2
20260507003001 50 155 2.0 5.0 0.00 0.00 0.00 68 1012.2
20260507002726 50 159 2.0 4.0 0.00 0.00 0.00 67 1012.2
20260507002501 50 158 2.0 6.0 0.00 0.00 0.00 68 1012.3
20260507002226 50 153 2.0 6.0 0.00 0.00 0.00 68 1012.2
20260507002000 50 151 2.0 6.0 0.00 0.00 0.00 67 1012.2
20260507001726 50 148 1.0 6.0 0.00 0.00 0.00 67 1012.2
20260507001522 50 143 1.0 4.0 0.00 0.00 0.00 67 1012.2
20260507001226 50 145 1.0 4.0 0.00 0.00 0.00 67 1012.2
20260507001001 50 146 1.0 4.0 0.00 0.00 0.00 68 1012.2
20260507000726 50 143 2.0 4.0 0.00 0.00 0.00 67 1012.2
20260507000501 50 135 2.0 4.0 0.00 0.00 0.00 66 1012.2
20260507000226 50 118 2.0 6.0 0.00 0.00 0.00 67 1012.1
20260507000002 50 111 2.0 6.0 0.00 0.00 0.00 66 1012.1
20260506235726 50 100 2.0 6.0 0.00 0.00 0.00 65 1012.2
20260506235501 50 97 2.0 6.0 0.00 0.00 0.00 65 1012.1
20260506235226 50 91 1.0 4.0 0.00 0.00 0.00 66 1012.2
20260506235001 50 88 1.0 4.0 0.00 0.00 0.00 65 1012.1
20260506234725 50 87 2.0 4.0 0.00 0.00 0.00 65 1012.1
20260506234500 50 87 2.0 4.0 0.00 0.00 0.00 66 1012.1
20260506234225 50 86 2.0 6.0 0.00 0.00 0.00 66 1012.1
20260506234000 50 86 2.0 6.0 0.00 0.00 0.00 66 1012.1
20260506233725 50 86 2.0 6.0 0.00 0.00 0.00 65 1012.1
20260506233501 51 87 2.0 6.0 0.00 0.00 0.00 65 1012.1
20260506233225 51 88 2.0 6.0 0.00 0.00 0.00 63 1012.0
20260506233001 51 87 3.0 6.0 0.00 0.00 0.00 63 1012.1
20260506232725 51 88 2.0 6.0 0.00 0.00 0.00 62 1011.9
20260506232501 51 88 2.0 6.0 0.00 0.00 0.00 62 1011.9
20260506232225 51 87 2.0 4.0 0.00 0.00 0.00 64 1011.9
20260506232001 51 88 2.0 4.0 0.00 0.00 0.00 63 1011.9
20260506231725 51 88 2.0 4.0 0.00 0.00 0.00 61 1011.8
20260506231501 51 90 2.0 6.0 0.00 0.00 0.00 60 1011.8
20260506231225 51 95 3.0 6.0 0.00 0.00 0.00 61 1011.9
20260506231000 51 98 3.0 6.0 0.00 0.00 0.00 63 1011.9
20260506230725 51 100 3.0 6.0 0.00 0.00 0.00 61 1011.9
20260506230501 52 101 3.0 6.0 0.00 0.00 0.00 61 1011.9
20260506230225 52 99 3.0 6.0 0.00 0.00 0.00 63 1012.0
20260506230001 52 99 3.0 6.0 0.00 0.00 0.00 63 1012.1
20260506225725 52 98 2.0 6.0 0.00 0.00 0.00 62 1012.1
20260506225500 52 98 2.0 6.0 0.00 0.00 0.00 64 1012.1
20260506225225 52 96 3.0 6.0 0.00 0.00 0.00 63 1012.0
20260506225001 52 94 3.0 6.0 0.00 0.00 0.00 64 1012.0
20260506224725 52 93 3.0 6.0 0.00 0.00 0.00 64 1011.9
20260506224501 52 92 2.0 6.0 0.00 0.00 0.00 63 1011.9
20260506224225 52 91 2.0 4.0 0.00 0.00 0.00 62 1012.0
20260506224001 52 92 1.0 4.0 0.00 0.00 0.00 63 1011.9
20260506223725 52 92 1.0 3.0 0.00 0.00 0.00 62 1012.1
20260506223501 52 92 2.0 3.0 0.00 0.00 0.00 62 1012.1
20260506223224 52 92 2.0 4.0 0.00 0.00 0.00 61 1011.9
20260506223000 52 92 2.0 4.0 0.00 0.00 0.00 61 1012.0
20260506222724 52 92 2.0 4.0 0.00 0.00 0.00 63 1012.1
20260506222501 52 92 2.0 4.0 0.00 0.00 0.00 62 1012.0
20260506222224 52 115 2.0 6.0 0.00 0.00 0.00 62 1012.1
20260506222001 52 132 2.0 6.0 0.00 0.00 0.00 61 1012.1
20260506221724 52 154 2.0 6.0 0.00 0.00 0.00 61 1012.1
20260506221501 52 181 2.0 6.0 0.00 0.00 0.00 62 1012.0
20260506221224 52 183 1.0 5.0 0.00 0.00 0.00 61 1012.1
20260506221001 52 172 1.0 5.0 0.00 0.00 0.00 60 1012.1
20260506220724 52 148 2.0 5.0 0.00 0.00 0.00 61 1012.1
20260506220501 52 136 2.0 5.0 0.00 0.00 0.00 61 1012.0
20260506220224 51 123 2.0 4.0 0.00 0.00 0.00 62 1012.0
20260506220001 51 123 2.0 4.0 0.00 0.00 0.00 61 1012.0
20260506215724 51 123 1.0 4.0 0.00 0.00 0.00 62 1012.0
20260506215500 51 123 2.0 4.0 0.00 0.00 0.00 63 1012.0
20260506215224 51 120 2.0 6.0 0.00 0.00 0.00 63 1012.0
20260506215021 51 119 2.0 6.0 0.00 0.00 0.00 64 1012.0
20260506214724 51 118 2.0 6.0 0.00 0.00 0.00 63 1011.9
20260506214501 51 117 2.0 6.0 0.00 0.00 0.00 62 1011.9
20260506214224 51 116 2.0 3.0 0.00 0.00 0.00 61 1012.0
20260506214001 51 116 2.0 4.0 0.00 0.00 0.00 62 1012.0
20260506213724 51 116 2.0 4.0 0.00 0.00 0.00 62 1012.0
20260506213500 51 119 2.0 4.0 0.00 0.00 0.00 63 1011.9
20260506213224 51 123 2.0 4.0 0.00 0.00 0.00 63 1011.9
20260506213001 51 122 1.0 4.0 0.00 0.00 0.00 63 1011.9
20260506212723 51 110 2.0 4.0 0.00 0.00 0.00 64 1011.9
20260506212501 51 100 2.0 4.0 0.00 0.00 0.00 65 1011.9
20260506212223 51 89 2.0 4.0 0.00 0.00 0.00 66 1011.9
20260506212022 51 88 2.0 4.0 0.00 0.00 0.00 65 1011.8
20260506211723 51 88 2.0 4.0 0.00 0.00 0.00 64 1011.8
20260506211521 51 88 2.0 4.0 0.00 0.00 0.00 62 1011.8
20260506211223 51 88 2.0 4.0 0.00 0.00 0.00 61 1011.9
20260506211002 51 88 2.0 4.0 0.00 0.00 0.00 62 1011.9
20260506210723 51 87 2.0 4.0 0.00 0.00 0.00 63 1011.9
20260506210501 51 87 2.0 4.0 0.00 0.00 0.00 62 1011.9
20260506210223 51 88 2.0 3.0 0.00 0.00 0.00 62 1011.9
20260506210022 51 88 2.0 4.0 0.00 0.00 0.00 63 1011.9
20260506205723 51 85 2.0 6.0 0.00 0.00 0.00 62 1011.9
20260506205501 51 83 2.0 6.0 0.00 0.00 0.00 60 1011.8
20260506205223 51 73 2.0 6.0 0.00 0.00 0.00 62 1011.9
20260506205001 51 68 2.0 6.0 0.00 0.00 0.00 62 1011.8
20260506204723 52 65 2.0 5.0 0.00 0.00 0.00 60 1011.8
20260506204500 52 68 2.0 5.0 0.00 0.00 0.00 60 1011.8
20260506204223 52 78 2.0 6.0 0.00 0.00 0.00 63 1011.8
20260506204001 52 78 2.0 6.0 0.00 0.00 0.00 63 1011.7
20260506203723 52 78 3.0 7.0 0.00 0.00 0.00 63 1011.8
20260506203501 52 80 3.0 7.0 0.00 0.00 0.00 63 1011.7
20260506203223 52 82 3.0 7.0 0.00 0.00 0.00 62 1011.8
20260506203021 52 88 3.0 7.0 0.00 0.00 0.00 62 1011.8
20260506202723 52 91 3.0 6.0 0.00 0.00 0.00 61 1011.9
20260506202501 53 88 3.0 6.0 0.00 0.00 0.00 60 1011.9
20260506202222 53 79 3.0 5.0 0.00 0.00 0.00 60 1011.9
20260506202001 53 63 3.0 6.0 0.00 0.00 0.00 63 1012.0
20260506201722 53 60 3.0 6.0 0.00 0.00 0.00 61 1012.0
20260506201501 53 63 3.0 7.0 0.00 0.00 0.00 61 1011.9
20260506201222 54 46 3.0 7.0 0.00 0.00 0.00 59 1012.0
20260506201001 54 26 3.0 10.0 0.00 0.00 0.00 58 1012.0
20260506200722 55 319 4.0 12.0 0.00 0.00 0.00 55 1012.0
20260506200501 55 309 4.0 12.0 0.00 0.00 0.00 54 1012.0
20260506200222 55 298 5.0 12.0 0.00 0.00 0.00 47 1011.9
20260506200002 55 296 6.0 12.0 0.00 0.00 0.00 48 1011.8
20260506195722 55 297 6.0 14.0 0.00 0.00 0.00 47 1011.8
20260506195501 55 290 7.0 14.0 0.00 0.00 0.00 49 1011.8
20260506195222 55 290 7.0 14.0 0.00 0.00 0.00 49 1011.9
20260506195001 55 288 7.0 14.0 0.00 0.00 0.00 48 1012.0
20260506194722 55 286 6.0 12.0 0.00 0.00 0.00 49 1011.9
20260506194501 55 283 6.0 11.0 0.00 0.00 0.00 49 1012.0
20260506194222 55 290 6.0 12.0 0.00 0.00 0.00 51 1011.9
20260506194001 54 298 6.0 12.0 0.00 0.00 0.00 49 1011.9
20260506193722 54 309 6.0 12.0 0.00 0.00 0.00 50 1011.9
20260506193501 54 319 6.0 12.0 0.00 0.00 0.00 49 1011.9
20260506193222 54 326 5.0 11.0 0.00 0.00 0.00 47 1011.9
20260506193000 54 319 5.0 11.0 0.00 0.00 0.00 48 1011.8
20260506192722 55 296 6.0 11.0 0.00 0.00 0.00 48 1011.8
20260506192501 55 283 6.0 11.0 0.00 0.00 0.00 49 1011.9
20260506192222 55 280 6.0 11.0 0.00 0.00 0.00 49 1011.8
20260506192022 55 285 6.0 11.0 0.00 0.00 0.00 49 1011.8
20260506191722 55 296 6.0 12.0 0.00 0.00 0.00 49 1011.8
20260506191501 55 302 6.0 12.0 0.00 0.00 0.00 48 1011.7
20260506191221 55 300 7.0 13.0 0.00 0.00 0.00 48 1011.8
20260506191023 55 297 7.0 13.0 0.00 0.00 0.00 49 1011.8
20260506190721 55 301 7.0 13.0 0.00 0.00 0.00 46 1011.7
20260506190522 55 296 6.0 13.0 0.00 0.00 0.00 47 1011.8
20260506190221 56 284 5.0 12.0 0.00 0.00 0.00 48 1011.6
20260506190001 56 282 5.0 11.0 0.00 0.00 0.00 47 1011.6
20260506185721 55 277 5.0 15.0 0.00 0.00 0.00 48 1011.6
20260506185501 55 287 6.0 15.0 0.00 0.00 0.00 48 1011.8
20260506185221 54 300 5.0 15.0 0.00 0.00 0.00 50 1011.8
20260506185022 54 304 5.0 15.0 0.00 0.00 0.00 50 1011.7
20260506184721 54 317 5.0 10.0 0.00 0.00 0.00 50 1011.6
20260506184501 53 323 5.0 10.0 0.00 0.00 0.00 49 1011.7
20260506184221 53 313 6.0 10.0 0.00 0.00 0.00 50 1011.8
20260506184001 53 309 6.0 10.0 0.00 0.00 0.00 49 1011.8
20260506183721 53 311 6.0 12.0 0.00 0.00 0.00 49 1011.8
20260506183501 53 306 6.0 12.0 0.00 0.00 0.00 52 1011.8
20260506183221 53 314 5.0 12.0 0.00 0.00 0.00 52 1011.8
20260506183001 53 317 5.0 12.0 0.00 0.00 0.00 51 1011.9
20260506182721 52 323 4.0 9.0 0.00 0.00 0.00 53 1011.8
20260506182501 52 324 4.0 9.0 0.00 0.00 0.00 53 1011.8
20260506182221 52 330 5.0 12.0 0.00 0.00 0.00 53 1011.8
20260506182000 52 339 5.0 12.0 0.00 0.00 0.00 54 1011.8
20260506181721 52 337 5.0 12.0 0.00 0.00 0.00 53 1011.9
20260506181523 52 339 5.0 12.0 0.00 0.00 0.00 53 1011.8
20260506181221 52 343 5.0 12.0 0.00 0.00 0.00 53 1011.9
20260506181001 52 335 5.0 12.0 0.00 0.00 0.00 54 1011.8
20260506180721 52 330 5.0 12.0 0.00 0.00 0.00 53 1011.9
20260506180501 52 332 5.0 10.0 0.00 0.00 0.00 53 1011.9
20260506180220 52 323 5.0 10.0 0.00 0.00 0.00 53 1012.0
20260506180001 52 319 6.0 13.0 0.00 0.00 0.00 53 1012.0
20260506175720 52 325 6.0 13.0 0.00 0.00 0.00 54 1012.0
20260506175502 52 326 6.0 13.0 0.00 0.00 0.00 53 1012.1
20260506175220 52 335 6.0 13.0 0.00 0.00 0.00 54 1012.2
20260506175022 52 342 5.0 13.0 0.00 0.00 0.00 54 1012.2
20260506174720 52 345 5.0 11.0 0.00 0.00 0.00 54 1012.0
20260506174502 52 346 5.0 11.0 0.00 0.00 0.00 54 1012.0
20260506174220 52 342 4.0 9.0 0.00 0.00 0.00 54 1012.0
20260506174001 52 338 4.0 9.0 0.00 0.00 0.00 53 1012.2
20260506173720 52 333 4.0 9.0 0.00 0.00 0.00 55 1012.1
20260506173501 52 330 4.0 9.0 0.00 0.01 0.00 55 1012.0
20260506173220 52 329 4.0 9.0 0.00 0.01 0.00 56 1011.9
20260506173001 52 339 4.0 8.0 0.00 0.01 0.00 56 1011.9
20260506172720 52 346 4.0 8.0 0.00 0.01 0.00 55 1011.9
20260506172502 52 347 4.0 8.0 0.00 0.01 0.00 55 1012.0
20260506172220 52 359 3.0 8.0 0.00 0.01 0.00 54 1011.9
20260506172001 52 359 3.0 8.0 0.00 0.01 0.00 55 1012.0
20260506171720 52 346 4.0 9.0 0.00 0.01 0.00 54 1011.8
20260506171501 52 340 4.0 11.0 0.00 0.01 0.00 55 1011.8
20260506171220 52 329 5.0 11.0 0.00 0.01 0.00 54 1011.8
20260506171001 52 324 5.0 11.0 0.00 0.01 0.00 54 1011.8
20260506170720 52 331 5.0 11.0 0.00 0.01 0.00 54 1011.7
20260506170523 52 335 5.0 14.0 0.00 0.02 0.00 54 1011.7
20260506170220 52 344 4.0 14.0 0.00 0.02 0.00 53 1011.7
20260506170001 53 340 4.0 14.0 0.00 0.02 0.00 54 1011.7
20260506165719 53 324 4.0 14.0 0.00 0.02 0.00 54 1011.6
20260506165501 53 316 4.0 11.0 0.00 0.02 0.00 55 1011.8
20260506165219 53 308 4.0 11.0 0.00 0.02 0.00 55 1011.7
20260506165022 53 310 4.0 11.0 0.00 0.02 0.00 55 1011.7
20260506164719 53 319 5.0 11.0 0.00 0.02 0.00 55 1011.9
20260506164502 52 328 4.0 10.0 0.00 0.02 0.00 55 1012.0
20260506164219 52 328 4.0 10.0 0.00 0.02 0.00 55 1012.0
20260506164001 52 324 4.0 10.0 0.00 0.02 0.00 53 1011.9
20260506163719 53 323 4.0 9.0 0.00 0.02 0.00 55 1012.0
20260506163502 52 310 4.0 9.0 0.00 0.02 0.00 56 1012.0
20260506163219 52 312 5.0 10.0 0.00 0.02 0.00 56 1012.0
20260506163002 52 321 6.0 14.0 0.00 0.02 0.00 54 1011.9
20260506162719 52 315 6.0 14.0 0.00 0.02 0.00 55 1011.9
20260506162501 52 310 6.0 14.0 0.00 0.02 0.00 54 1011.9
20260506162219 52 308 5.0 14.0 0.00 0.02 0.00 53 1011.9
20260506162001 52 307 5.0 8.0 0.00 0.02 0.00 56 1011.8
20260506161719 52 306 5.0 15.0 0.00 0.02 0.00 56 1011.8
20260506161502 52 311 5.0 15.0 0.00 0.02 0.00 56 1011.8
20260506161219 52 323 5.0 15.0 0.00 0.02 0.00 54 1011.8
20260506161001 52 326 6.0 15.0 0.00 0.02 0.00 55 1011.9
20260506160719 52 336 4.0 10.0 0.00 0.02 0.00 57 1011.8
20260506160501 52 339 4.0 10.0 0.00 0.02 0.00 58 1011.8
20260506160219 52 324 5.0 11.0 0.00 0.02 0.00 56 1011.9
20260506160001 52 310 5.0 11.0 0.00 0.02 0.00 56 1011.9
20260506155719 52 310 5.0 11.0 0.00 0.02 0.00 57 1011.9
20260506155502 52 317 5.0 11.0 0.00 0.02 0.00 56 1012.0
20260506155219 51 314 5.0 11.0 0.00 0.02 0.00 57 1012.0
20260506155001 51 307 5.0 10.0 0.00 0.02 0.00 56 1012.0
20260506154719 51 310 5.0 10.0 0.00 0.02 0.00 56 1012.0
20260506154501 51 310 4.0 10.0 0.00 0.02 0.00 59 1011.9
20260506154219 51 335 4.0 10.0 0.00 0.02 0.00 59 1011.9
20260506154001 51 341 4.0 10.0 0.00 0.02 0.00 58 1011.9
20260506153718 50 352 4.0 11.0 0.00 0.02 0.00 61 1011.9
20260506153501 50 337 5.0 11.0 0.00 0.02 0.00 62 1012.0
20260506153218 50 321 5.0 11.0 0.00 0.02 0.00 60 1011.9
20260506153001 50 322 5.0 11.0 0.00 0.02 0.00 59 1012.0
20260506152718 50 305 5.0 11.0 0.00 0.02 0.00 60 1011.9
20260506152502 50 303 5.0 11.0 0.00 0.02 0.00 59 1011.8
20260506152218 50 308 5.0 11.0 0.00 0.02 0.00 60 1011.9
20260506152002 50 319 5.0 11.0 0.00 0.02 0.00 63 1011.8
20260506151718 49 338 4.0 11.0 0.00 0.02 0.00 61 1011.9
20260506151522 49 350 4.0 11.0 0.00 0.02 0.00 61 1011.9
20260506151218 49 359 3.0 8.0 0.00 0.02 0.00 60 1011.8
20260506151001 49 350 3.0 6.0 0.00 0.02 0.00 60 1011.7
20260506150718 49 323 3.0 8.0 0.00 0.02 0.00 62 1011.7
20260506150502 49 321 4.0 13.0 0.00 0.02 0.00 62 1011.7
20260506150218 49 320 4.0 13.0 0.00 0.02 0.00 61 1011.7
20260506150002 49 321 4.0 13.0 0.00 0.02 0.00 62 1011.8
20260506145718 49 323 5.0 13.0 0.00 0.02 0.00 60 1011.5
20260506145501 49 319 4.0 9.0 0.00 0.02 0.00 62 1011.6
20260506145218 49 335 4.0 9.0 0.00 0.02 0.00 62 1011.7
20260506145022 49 344 4.0 9.0 0.00 0.02 0.00 62 1011.7
20260506144718 49 360 4.0 9.0 0.00 0.02 0.00 62 1011.7
20260506144502 49 356 3.0 8.0 0.00 0.02 0.00 62 1011.5
20260506144217 49 347 3.0 8.0 0.00 0.02 0.00 63 1011.7
20260506144001 49 340 3.0 8.0 0.00 0.02 0.00 64 1011.6
20260506143717 49 350 3.0 8.0 0.00 0.02 0.00 63 1011.5
20260506143502 48 13 3.0 8.0 0.00 0.02 0.00 63 1011.6
20260506143217 48 20 3.0 8.0 0.00 0.02 0.00 63 1011.8
20260506143023 48 15 3.0 9.0 0.00 0.02 0.00 63 1011.6
20260506142717 48 359 3.0 9.0 0.00 0.02 0.00 63 1011.5
20260506142502 48 345 3.0 9.0 0.00 0.02 0.00 62 1011.5
20260506142217 48 315 4.0 9.0 0.00 0.02 0.00 62 1011.5
20260506142022 48 304 4.0 9.0 0.00 0.02 0.00 63 1011.5
20260506141717 48 303 5.0 9.0 0.00 0.02 0.00 64 1011.5
20260506141502 48 302 5.0 9.0 0.00 0.02 0.00 64 1011.5
20260506141217 48 305 5.0 11.0 0.00 0.02 0.00 64 1011.5
20260506141001 47 311 5.0 11.0 0.00 0.02 0.00 65 1011.5
20260506140717 47 318 5.0 11.0 0.00 0.02 0.00 65 1011.5
20260506140501 47 330 5.0 11.0 0.00 0.02 0.00 65 1011.4
20260506140217 47 355 4.0 10.0 0.00 0.02 0.00 65 1011.3
20260506140023 47 6 3.0 10.0 0.00 0.02 0.00 66 1011.4
20260506135717 47 11 3.0 10.0 0.00 0.02 0.00 64 1011.4
20260506135501 47 357 4.0 10.0 0.00 0.02 0.00 65 1011.3
20260506135217 47 342 4.0 10.0 0.00 0.02 0.00 64 1011.2
20260506135002 47 342 4.0 9.0 0.00 0.02 0.00 64 1011.2
20260506134717 47 346 4.0 9.0 0.00 0.02 0.00 65 1011.3
20260506134523 47 349 3.0 9.0 0.00 0.02 0.00 65 1011.3
20260506134216 47 3 3.0 6.0 0.00 0.02 0.00 66 1011.2
20260506134001 47 358 3.0 6.0 0.00 0.02 0.00 66 1011.1
20260506133716 47 354 3.0 6.0 0.00 0.02 0.00 66 1011.1
20260506133523 46 360 3.0 7.0 0.00 0.02 0.00 66 1011.1
20260506133216 46 345 3.0 8.0 0.00 0.02 0.00 66 1011.0
20260506133001 46 343 3.0 8.0 0.00 0.02 0.00 66 1011.0
20260506132716 46 338 4.0 10.0 0.00 0.02 0.00 66 1011.1
20260506132503 46 332 4.0 10.0 0.00 0.02 0.00 67 1011.0
20260506132216 46 338 4.0 10.0 0.00 0.02 0.00 66 1011.0
20260506132002 46 331 5.0 13.0 0.00 0.02 0.00 66 1010.9
20260506131716 46 324 5.0 13.0 0.00 0.02 0.00 66 1011.0
20260506131522 46 327 5.0 13.0 0.00 0.02 0.00 67 1010.9
20260506131216 46 322 5.0 13.0 0.00 0.02 0.00 67 1010.8
20260506131023 46 323 5.0 11.0 0.00 0.02 0.00 67 1010.8
20260506130716 46 317 5.0 11.0 0.00 0.02 0.00 67 1010.6
20260506130501 46 310 5.0 11.0 0.00 0.02 0.00 68 1010.6
20260506130216 46 312 4.0 10.0 0.00 0.02 0.00 69 1010.4
20260506130022 46 316 4.0 9.0 0.00 0.02 0.00 70 1010.3
20260506125716 46 333 3.0 8.0 0.00 0.02 0.00 69 1010.3
20260506125502 45 352 3.0 8.0 0.00 0.02 0.00 69 1010.2
20260506125216 45 355 3.0 10.0 0.00 0.02 0.00 70 1010.3
20260506125001 45 352 3.0 10.0 0.00 0.02 0.00 69 1010.3
20260506124716 45 346 3.0 10.0 0.00 0.02 0.00 69 1010.2
20260506124501 45 340 3.0 10.0 0.00 0.02 0.00 68 1010.1
20260506124216 45 333 2.0 8.0 0.00 0.02 0.00 68 1010.2
20260506124002 45 320 2.0 5.0 0.00 0.02 0.00 68 1010.2
20260506123715 45 319 2.0 4.0 0.00 0.02 0.00 68 1010.1
20260506123522 45 319 1.0 4.0 0.00 0.02 0.00 68 1010.1
20260506123215 45 327 2.0 4.0 0.00 0.02 0.00 69 1010.1
20260506123023 45 334 2.0 5.0 0.00 0.02 0.00 69 1010.1
20260506122715 45 323 4.0 11.0 0.00 0.02 0.00 70 1010.1
20260506122502 45 322 4.0 11.0 0.00 0.02 0.00 69 1010.1
20260506122215 45 318 4.0 11.0 0.00 0.02 0.00 69 1010.1
20260506122001 45 315 5.0 11.0 0.00 0.02 0.00 69 1010.2
20260506121715 45 318 5.0 10.0 0.00 0.02 0.00 69 1010.3
20260506121502 45 317 5.0 10.0 0.00 0.02 0.00 69 1010.3
20260506121215 45 322 5.0 10.0 0.00 0.02 0.00 68 1010.1
20260506121023 45 322 4.0 10.0 0.00 0.02 0.00 69 1010.0
20260506120715 45 324 4.0 9.0 0.00 0.02 0.00 69 1010.0
20260506120501 45 322 4.0 9.0 0.00 0.02 0.00 68 1010.0
20260506120215 45 317 5.0 9.0 0.00 0.02 0.00 68 1009.9
20260506120023 45 317 5.0 9.0 0.00 0.02 0.00 68 1009.9
20260506115715 45 315 5.0 10.0 0.00 0.02 0.00 68 1009.7
20260506115523 45 318 5.0 10.0 0.00 0.02 0.00 67 1009.8
20260506115215 45 319 4.0 10.0 0.00 0.02 0.00 68 1009.7
20260506115001 45 318 4.0 10.0 0.00 0.02 0.00 67 1009.7
20260506114715 45 319 4.0 9.0 0.00 0.02 0.00 67 1009.6
20260506114502 45 319 4.0 9.0 0.00 0.02 0.00 67 1009.5
20260506114215 45 320 4.0 9.0 0.00 0.02 0.00 68 1009.6
20260506114002 45 328 4.0 9.0 0.00 0.02 0.00 68 1009.6
20260506113715 45 334 3.0 8.0 0.00 0.02 0.00 68 1009.4
20260506113502 45 330 3.0 8.0 0.00 0.02 0.00 68 1009.5
20260506113215 45 321 3.0 7.0 0.00 0.02 0.00 68 1009.4
20260506113002 45 318 3.0 7.0 0.00 0.02 0.00 67 1009.3
20260506112714 45 325 3.0 9.0 0.00 0.02 0.00 68 1009.3
20260506112502 46 324 3.0 9.0 0.00 0.02 0.00 68 1009.3
20260506112214 46 319 4.0 9.0 0.00 0.02 0.00 68 1009.4
20260506112002 46 310 4.0 9.0 0.00 0.02 0.00 68 1009.3
20260506111714 46 309 4.0 9.0 0.00 0.02 0.00 68 1009.2
20260506111502 46 306 4.0 9.0 0.00 0.02 0.00 68 1009.3
20260506111214 46 308 4.0 9.0 0.00 0.02 0.00 70 1009.3
20260506111002 46 310 4.0 9.0 0.00 0.02 0.00 69 1009.2
20260506110714 46 303 3.0 7.0 0.00 0.02 0.00 70 1009.2
20260506110502 46 303 3.0 7.0 0.00 0.02 0.00 70 1009.1
20260506110214 46 308 3.0 6.0 0.00 0.02 0.00 70 1009.0
20260506110002 46 311 2.0 6.0 0.00 0.02 0.00 69 1009.0
20260506105714 46 311 3.0 6.0 0.00 0.02 0.00 68 1009.0
20260506105502 46 317 3.0 6.0 0.00 0.02 0.00 68 1008.9
20260506105214 46 323 3.0 8.0 0.00 0.02 0.00 69 1008.7
20260506105024 46 323 3.0 8.0 0.00 0.02 0.00 69 1008.7
20260506104714 46 325 3.0 8.0 0.00 0.02 0.00 69 1008.7
20260506104502 46 325 3.0 8.0 0.00 0.02 0.00 68 1008.6
20260506104214 46 316 2.0 8.0 0.00 0.02 0.00 69 1008.6
20260506104023 46 313 2.0 8.0 0.00 0.02 0.00 69 1008.7
20260506103714 46 310 2.0 5.0 0.00 0.02 0.00 69 1008.5
20260506103523 46 311 2.0 5.0 0.00 0.02 0.00 69 1008.5
20260506103214 46 308 2.0 5.0 0.00 0.02 0.00 69 1008.4
20260506103001 46 312 2.0 5.0 0.00 0.02 0.00 69 1008.5
20260506102713 46 323 2.0 5.0 0.00 0.02 0.00 69 1008.3
20260506102502 46 327 2.0 5.0 0.00 0.02 0.00 69 1008.3
20260506102213 46 341 2.0 4.0 0.00 0.02 0.00 70 1008.3
20260506102002 46 339 2.0 5.0 0.00 0.02 0.00 70 1008.2
20260506101713 46 340 2.0 5.0 0.00 0.02 0.00 70 1008.2
20260506101501 46 341 2.0 5.0 0.00 0.02 0.00 69 1008.2
20260506101213 46 341 2.0 5.0 0.00 0.02 0.00 69 1008.2
20260506101002 46 339 2.0 5.0 0.00 0.02 0.00 70 1008.2
20260506100713 46 333 2.0 5.0 0.00 0.02 0.00 70 1008.4
20260506100503 46 328 2.0 5.0 0.00 0.02 0.00 70 1008.3
20260506100213 46 323 2.0 5.0 0.00 0.02 0.00 71 1008.3
20260506100022 46 324 2.0 5.0 0.00 0.02 0.00 71 1008.2
20260506095713 47 323 2.0 5.0 0.00 0.02 0.00 71 1008.1
20260506095501 47 323 2.0 9.0 0.00 0.02 0.00 71 1008.1
20260506095213 47 328 3.0 9.0 0.00 0.02 0.00 71 1008.1
20260506095002 47 336 3.0 9.0 0.00 0.02 0.00 71 1008.0
20260506094713 47 347 3.0 9.0 0.00 0.02 0.00 71 1008.1
20260506094502 47 355 3.0 9.0 0.00 0.02 0.00 70 1008.2
20260506094213 47 1 4.0 9.0 0.00 0.02 0.00 70 1008.3
20260506094002 47 359 3.0 9.0 0.00 0.02 0.00 70 1008.3
20260506093713 47 351 3.0 8.0 0.00 0.02 0.00 70 1008.2
20260506093523 47 348 3.0 8.0 0.00 0.02 0.00 71 1008.2
20260506093213 48 343 3.0 7.0 0.00 0.02 0.00 71 1008.2
20260506093002 48 339 3.0 8.0 0.00 0.02 0.00 71 1008.1
20260506092713 48 338 3.0 8.0 0.00 0.02 0.00 70 1008.2
20260506092502 48 338 4.0 8.0 0.00 0.02 0.00 70 1008.0
20260506092213 48 334 3.0 8.0 0.00 0.02 0.00 69 1007.9
20260506092002 48 339 3.0 6.0 0.00 0.02 0.00 69 1008.0
20260506091713 48 339 2.0 6.0 0.00 0.02 0.00 69 1007.9
20260506091502 49 341 2.0 6.0 0.00 0.02 0.00 68 1007.9
20260506091213 49 339 2.0 5.0 0.00 0.02 0.00 67 1007.9
20260506091001 49 333 2.0 4.0 0.00 0.02 0.00 67 1007.8
20260506090712 49 331 2.0 4.0 0.00 0.02 0.00 66 1007.7